TimeEST,TemperatureF,Dew PointF,Humidity,Sea Level PressureIn,VisibilityMPH,Wind Direction,Wind SpeedMPH,Gust SpeedMPH,PrecipitationIn,Events,Conditions,WindDirDegrees,DateUTC
12:53 AM,36.0,30.9,82,30.22,8.0,Calm,Calm,-,N/A,,Clear,0,2012-11-20 05:53:00
1:53 AM,34.0,30.0,85,30.22,8.0,Calm,Calm,-,N/A,,Clear,0,2012-11-20 06:53:00
2:53 AM,33.1,30.0,89,30.21,5.0,Calm,Calm,-,N/A,,Clear,0,2012-11-20 07:53:00
3:53 AM,34.0,30.0,85,30.19,6.0,Calm,Calm,-,N/A,,Clear,0,2012-11-20 08:53:00
4:53 AM,32.0,28.9,88,30.19,6.0,Calm,Calm,-,N/A,,Clear,0,2012-11-20 09:53:00
5:53 AM,32.0,30.0,92,30.22,7.0,Calm,Calm,-,N/A,,Clear,0,2012-11-20 10:53:00
6:53 AM,32.0,28.9,88,30.21,5.0,Calm,Calm,-,N/A,,Clear,0,2012-11-20 11:53:00
7:53 AM,30.9,28.9,92,30.22,4.0,Calm,Calm,-,N/A,,Clear,0,2012-11-20 12:53:00
8:53 AM,34.0,32.0,92,30.23,4.0,Calm,Calm,-,N/A,,Clear,0,2012-11-20 13:53:00
9:53 AM,42.1,35.1,76,30.22,8.0,Calm,Calm,-,N/A,,Mostly Cloudy,0,2012-11-20 14:53:00
10:53 AM,46.9,35.1,63,30.21,8.0,Calm,Calm,-,N/A,,Clear,0,2012-11-20 15:53:00
11:53 AM,54.0,35.1,49,30.18,10.0,NNE,3.5,-,N/A,,Clear,20,2012-11-20 16:53:00
12:53 PM,55.9,33.1,42,30.15,10.0,Calm,Calm,-,N/A,,Mostly Cloudy,0,2012-11-20 17:53:00
1:53 PM,57.0,30.0,36,30.13,10.0,Calm,Calm,-,N/A,,Mostly Cloudy,0,2012-11-20 18:53:00
2:53 PM,57.0,30.0,36,30.12,10.0,Calm,Calm,-,N/A,,Mostly Cloudy,0,2012-11-20 19:53:00
3:53 PM,57.9,30.9,36,30.13,10.0,Calm,Calm,-,N/A,,Overcast,0,2012-11-20 20:53:00
4:53 PM,55.9,30.9,39,30.13,10.0,Calm,Calm,-,N/A,,Overcast,0,2012-11-20 21:53:00
5:53 PM,54.0,30.9,41,30.13,10.0,Calm,Calm,-,N/A,,Overcast,0,2012-11-20 22:53:00
6:53 PM,51.1,34.0,52,30.15,10.0,Calm,Calm,-,N/A,,Overcast,0,2012-11-20 23:53:00
7:53 PM,50.0,34.0,54,30.17,10.0,Calm,Calm,-,N/A,,Overcast,0,2012-11-21 00:53:00
8:53 PM,48.0,35.1,61,30.18,10.0,Calm,Calm,-,N/A,,Overcast,0,2012-11-21 01:53:00
9:53 PM,48.0,35.1,61,30.17,10.0,Calm,Calm,-,N/A,,Mostly Cloudy,0,2012-11-21 02:53:00
10:53 PM,45.0,35.1,68,30.17,8.0,Calm,Calm,-,N/A,,Scattered Clouds,0,2012-11-21 03:53:00
11:53 PM,45.0,35.1,68,30.17,10.0,Calm,Calm,-,N/A,,Clear,0,2012-11-21 04:53:00